KLM322 FALE-FALA

Flight info

Callsign KLM322
Flight time 0h 52m
Altitude 34000
Route GEPOM UZ29 UNPOM DCT LIV
Aircraft B738/M-SDE2E3FGHIRWXY/LB1

Departure

Time 2026-04-29 17:25
Airport King Shaka International Airport (FALE)

Arrival

Time 2026-04-29 18:18
Airport Lanseria International Airport (FALA)
Time Latitude Longitude Altitude Speed Heading
2026-04-29 17:04 -29.62134 31.10429 314 ft 0 kts 307°
2026-04-29 17:15 -29.62146 31.10447 314 ft 3 kts 306°
2026-04-29 17:15 -29.62160 31.10469 314 ft 3 kts 300°
2026-04-29 17:16 -29.62160 31.10491 314 ft 3 kts 229°
2026-04-29 17:16 -29.62141 31.10508 314 ft 3 kts 218°
2026-04-29 17:16 -29.62139 31.10511 314 ft 0 kts 218°
2026-04-29 17:20 -29.62139 31.10510 314 ft 1 kts 218°
2026-04-29 17:21 -29.62142 31.10508 314 ft 3 kts 218°
2026-04-29 17:21 -29.62182 31.10472 314 ft 10 kts 218°
2026-04-29 17:21 -29.62244 31.10434 314 ft 10 kts 173°
2026-04-29 17:21 -29.62297 31.10486 314 ft 10 kts 129°
2026-04-29 17:22 -29.62335 31.10542 314 ft 8 kts 129°
2026-04-29 17:22 -29.62375 31.10604 314 ft 11 kts 127°
2026-04-29 17:22 -29.62420 31.10670 314 ft 7 kts 129°
2026-04-29 17:22 -29.62433 31.10690 314 ft 0 kts 128°
2026-04-29 17:23 -29.62440 31.10699 314 ft 9 kts 128°
2026-04-29 17:23 -29.62478 31.10782 314 ft 12 kts 76°
2026-04-29 17:24 -29.62446 31.10821 314 ft 0 kts 39°
2026-04-29 17:24 -29.62435 31.10832 314 ft 4 kts 38°
2026-04-29 17:24 -29.62399 31.10864 314 ft 9 kts 37°
2026-04-29 17:24 -29.62240 31.11004 314 ft 69 kts 37°
2026-04-29 17:25 -29.61651 31.11517 314 ft 140 kts 36°
2026-04-29 17:25 -29.60772 31.12283 708 ft 171 kts 38°
2026-04-29 17:25 -29.59787 31.13254 1232 ft 203 kts 43°
2026-04-29 17:25 -29.58718 31.14539 1959 ft 238 kts 47°
2026-04-29 17:26 -29.57416 31.15748 2911 ft 245 kts 30°
2026-04-29 17:26 -29.56404 31.16353 3555 ft 248 kts 28°
2026-04-29 17:26 -29.54842 31.17188 4629 ft 248 kts 12°
2026-04-29 17:26 -29.53086 31.17061 5396 ft 266 kts 342°
2026-04-29 17:27 -29.51402 31.15958 5828 ft 293 kts 320°
2026-04-29 17:27 -29.50016 31.14228 6757 ft 297 kts 304°
2026-04-29 17:27 -29.48998 31.12199 8007 ft 287 kts 298°
2026-04-29 17:27 -29.48078 31.10261 9475 ft 271 kts 300°
2026-04-29 17:28 -29.47093 31.08383 10279 ft 282 kts 305°
2026-04-29 17:28 -29.45980 31.06434 10674 ft 303 kts 309°
2026-04-29 17:28 -29.44662 31.04440 11065 ft 321 kts 313°
2026-04-29 17:28 -29.43288 31.02443 12151 ft 315 kts 306°
2026-04-29 17:29 -29.42281 31.00224 13370 ft 312 kts 299°
2026-04-29 17:29 -29.41273 30.98038 14455 ft 309 kts 301°
2026-04-29 17:29 -29.39989 30.96053 15369 ft 313 kts 306°
2026-04-29 17:29 -29.38487 30.94188 16051 ft 323 kts 307°
2026-04-29 17:30 -29.36917 30.92301 16773 ft 330 kts 306°
2026-04-29 17:30 -29.35378 30.90330 17547 ft 333 kts 304°
2026-04-29 17:30 -29.33877 30.88281 18344 ft 336 kts 303°
2026-04-29 17:30 -29.32384 30.86203 19183 ft 339 kts 303°
2026-04-29 17:31 -29.30871 30.84125 20009 ft 342 kts 303°
2026-04-29 17:31 -29.29320 30.82031 20224 ft 344 kts 304°
2026-04-29 17:31 -29.27789 30.79992 20266 ft 341 kts 304°
2026-04-29 17:31 -29.26229 30.77911 20275 ft 340 kts 304°
2026-04-29 17:32 -29.24698 30.75852 20278 ft 339 kts 304°
2026-04-29 17:32 -29.23171 30.73789 20279 ft 339 kts 303°
2026-04-29 17:32 -29.21679 30.71707 20279 ft 338 kts 302°
2026-04-29 17:32 -29.20238 30.69628 20281 ft 338 kts 302°
2026-04-29 17:33 -29.18780 30.67514 20281 ft 338 kts 302°
2026-04-29 17:33 -29.17314 30.65415 20283 ft 338 kts 302°
2026-04-29 17:33 -29.15814 30.63291 20527 ft 339 kts 303°
2026-04-29 17:33 -29.14341 30.61208 21276 ft 343 kts 303°
2026-04-29 17:34 -29.12783 30.59126 22121 ft 346 kts 308°
2026-04-29 17:34 -29.10912 30.57344 22949 ft 354 kts 318°
2026-04-29 17:34 -29.08814 30.55798 23577 ft 362 kts 319°
2026-04-29 17:34 -29.06700 30.54221 24230 ft 364 kts 319°
2026-04-29 17:35 -29.03141 30.51512 25306 ft 369 kts 318°
2026-04-29 17:35 -29.00288 30.49347 26121 ft 374 kts 318°
2026-04-29 17:35 -28.98111 30.47708 26721 ft 376 kts 318°
2026-04-29 17:36 -28.95917 30.46062 27291 ft 379 kts 318°
2026-04-29 17:36 -28.93700 30.44395 27836 ft 382 kts 318°
2026-04-29 17:36 -28.91474 30.42719 28357 ft 385 kts 317°
2026-04-29 17:36 -28.89231 30.41031 28861 ft 388 kts 317°
2026-04-29 17:37 -28.86972 30.39332 29360 ft 390 kts 317°
2026-04-29 17:37 -28.84698 30.37623 29836 ft 392 kts 317°
2026-04-29 17:37 -28.82417 30.35911 30291 ft 395 kts 317°
2026-04-29 17:37 -28.80119 30.34188 30607 ft 394 kts 318°
2026-04-29 17:38 -28.77825 30.32473 30743 ft 397 kts 317°
2026-04-29 17:38 -28.75505 30.30728 31061 ft 401 kts 317°
2026-04-29 17:38 -28.73175 30.28979 31516 ft 401 kts 317°
2026-04-29 17:38 -28.70842 30.27233 31997 ft 401 kts 317°
2026-04-29 17:39 -28.68511 30.25492 32482 ft 400 kts 317°
2026-04-29 17:39 -28.66185 30.23755 32961 ft 399 kts 317°
2026-04-29 17:39 -28.63867 30.22022 33427 ft 397 kts 317°
2026-04-29 17:39 -28.61562 30.20298 33876 ft 396 kts 317°
2026-04-29 17:40 -28.59264 30.18579 34240 ft 397 kts 317°
2026-04-29 17:40 -28.54618 30.15105 34295 ft 400 kts 317°
2026-04-29 17:41 -28.49989 30.11666 34299 ft 395 kts 317°
2026-04-29 17:41 -28.45385 30.08232 34302 ft 395 kts 317°
2026-04-29 17:42 -28.40789 30.04810 34304 ft 395 kts 317°
2026-04-29 17:42 -28.36185 30.01390 34306 ft 396 kts 317°
2026-04-29 17:43 -28.31576 29.97969 34308 ft 396 kts 317°
2026-04-29 17:43 -28.26973 29.94555 34310 ft 396 kts 317°
2026-04-29 17:44 -28.22362 29.91139 34312 ft 396 kts 317°
2026-04-29 17:44 -28.17745 29.87721 34314 ft 397 kts 317°
2026-04-29 17:45 -28.13120 29.84303 34315 ft 396 kts 317°
2026-04-29 17:45 -28.08526 29.80910 34317 ft 396 kts 317°
2026-04-29 17:46 -28.03904 29.77500 34319 ft 396 kts 317°
2026-04-29 17:46 -27.99280 29.74092 34321 ft 396 kts 317°
2026-04-29 17:47 -27.94656 29.70688 34323 ft 397 kts 318°
2026-04-29 17:47 -27.90020 29.67278 34324 ft 397 kts 318°
2026-04-29 17:48 -27.85388 29.63876 34325 ft 397 kts 318°
2026-04-29 17:48 -27.80749 29.60472 34327 ft 397 kts 318°
2026-04-29 17:49 -27.76121 29.57084 34327 ft 396 kts 318°
2026-04-29 17:49 -27.71487 29.53692 34329 ft 397 kts 318°
2026-04-29 17:50 -27.66854 29.50306 34330 ft 397 kts 318°
2026-04-29 17:50 -27.62215 29.46919 34331 ft 398 kts 318°
2026-04-29 17:51 -27.57580 29.43539 34332 ft 397 kts 318°
2026-04-29 17:51 -27.52918 29.40142 34333 ft 398 kts 318°
2026-04-29 17:52 -27.48253 29.36746 34335 ft 398 kts 318°
2026-04-29 17:52 -27.43613 29.33374 34335 ft 397 kts 319°
2026-04-29 17:53 -27.38962 29.29993 34336 ft 398 kts 319°
2026-04-29 17:53 -27.34308 29.26617 34337 ft 398 kts 319°
2026-04-29 17:54 -27.29653 29.23242 34338 ft 399 kts 319°
2026-04-29 17:54 -27.25014 29.19883 34339 ft 399 kts 319°
2026-04-29 17:55 -27.20343 29.16505 34341 ft 400 kts 319°
2026-04-29 17:55 -27.15410 29.13472 34343 ft 405 kts 324°
2026-04-29 17:56 -27.10396 29.10607 34342 ft 404 kts 324°
2026-04-29 17:56 -27.05417 29.07669 34343 ft 404 kts 323°
2026-04-29 17:57 -27.00442 29.04732 34344 ft 404 kts 324°
2026-04-29 17:57 -26.95439 29.01809 34345 ft 405 kts 324°
2026-04-29 17:58 -26.90443 28.98884 34346 ft 405 kts 324°
2026-04-29 17:58 -26.85446 28.95956 34347 ft 406 kts 324°
2026-04-29 17:59 -26.80444 28.93034 34348 ft 406 kts 324°
2026-04-29 17:59 -26.75448 28.90118 34346 ft 405 kts 324°
2026-04-29 17:59 -26.72959 28.88667 33877 ft 402 kts 324°
2026-04-29 18:00 -26.70542 28.87030 33422 ft 410 kts 315°
2026-04-29 18:00 -26.68558 28.84718 32896 ft 417 kts 301°
2026-04-29 18:00 -26.67063 28.81903 32487 ft 423 kts 296°
2026-04-29 18:01 -26.64072 28.76379 32427 ft 410 kts 299°
2026-04-29 18:01 -26.61050 28.71036 32207 ft 403 kts 298°
2026-04-29 18:01 -26.59605 28.68386 31422 ft 393 kts 298°
2026-04-29 18:02 -26.58203 28.65782 30328 ft 389 kts 298°
2026-04-29 18:02 -26.56805 28.63200 29132 ft 387 kts 298°
2026-04-29 18:02 -26.55402 28.60637 27937 ft 385 kts 298°
2026-04-29 18:02 -26.54003 28.58100 26745 ft 383 kts 299°
2026-04-29 18:03 -26.52610 28.55576 25844 ft 376 kts 299°
2026-04-29 18:03 -26.51273 28.53149 25313 ft 360 kts 299°
2026-04-29 18:03 -26.49986 28.50808 24730 ft 347 kts 299°
2026-04-29 18:03 -26.49161 28.49305 24347 ft 340 kts 298°
2026-04-29 18:04 -26.47531 28.46335 23584 ft 334 kts 299°
2026-04-29 18:04 -26.46314 28.44117 23009 ft 336 kts 299°
2026-04-29 18:04 -26.45089 28.41890 22436 ft 337 kts 299°
2026-04-29 18:04 -26.44271 28.40406 22054 ft 338 kts 299°
2026-04-29 18:05 -26.43036 28.38168 21481 ft 339 kts 299°
2026-04-29 18:05 -26.41804 28.35934 20909 ft 340 kts 300°
2026-04-29 18:05 -26.40561 28.33682 20333 ft 340 kts 300°
2026-04-29 18:05 -26.39322 28.31437 19759 ft 340 kts 300°
2026-04-29 18:06 -26.38080 28.29187 19184 ft 340 kts 300°
2026-04-29 18:06 -26.36839 28.26941 18608 ft 340 kts 300°
2026-04-29 18:06 -26.35599 28.24697 18032 ft 339 kts 300°
2026-04-29 18:06 -26.34361 28.22460 17454 ft 338 kts 300°
2026-04-29 18:07 -26.33127 28.20230 16878 ft 337 kts 300°
2026-04-29 18:07 -26.31912 28.18036 16309 ft 336 kts 300°
2026-04-29 18:07 -26.30672 28.15797 15726 ft 335 kts 300°
2026-04-29 18:07 -26.29464 28.13616 15156 ft 334 kts 300°
2026-04-29 18:08 -26.28243 28.11415 14580 ft 333 kts 300°
2026-04-29 18:08 -26.27026 28.09220 14002 ft 332 kts 300°
2026-04-29 18:08 -26.25817 28.07041 13427 ft 330 kts 299°
2026-04-29 18:08 -26.24634 28.04915 12840 ft 316 kts 299°
2026-04-29 18:09 -26.23501 28.02879 12261 ft 304 kts 299°
2026-04-29 18:09 -26.22403 28.00904 11694 ft 294 kts 299°
2026-04-29 18:09 -26.21340 27.98989 11019 ft 289 kts 300°
2026-04-29 18:09 -26.20290 27.97096 10299 ft 286 kts 301°
2026-04-29 18:10 -26.19242 27.95210 9564 ft 284 kts 301°
2026-04-29 18:10 -26.18226 27.93384 9223 ft 269 kts 302°
2026-04-29 18:10 -26.17270 27.91668 8961 ft 253 kts 303°
2026-04-29 18:10 -26.16370 27.90050 8744 ft 238 kts 303°
2026-04-29 18:11 -26.15529 27.88541 8589 ft 222 kts 303°
2026-04-29 18:11 -26.14743 27.87130 8399 ft 206 kts 303°
2026-04-29 18:11 -26.14000 27.85798 8062 ft 200 kts 303°
2026-04-29 18:11 -26.13273 27.84496 7704 ft 195 kts 302°
2026-04-29 18:12 -26.12570 27.83239 7368 ft 189 kts 302°
2026-04-29 18:12 -26.11880 27.82008 7027 ft 187 kts 302°
2026-04-29 18:12 -26.11187 27.80778 7022 ft 190 kts 302°
2026-04-29 18:12 -26.10404 27.79582 7002 ft 195 kts 314°
2026-04-29 18:13 -26.09302 27.78686 7009 ft 197 kts 333°
2026-04-29 18:13 -26.08016 27.78259 6987 ft 192 kts 352°
2026-04-29 18:13 -26.06677 27.78334 6984 ft 193 kts 12°
2026-04-29 18:13 -26.05446 27.78905 6978 ft 192 kts 31°
2026-04-29 18:14 -26.04462 27.79906 6985 ft 193 kts 47°
2026-04-29 18:14 -26.03573 27.80998 6906 ft 189 kts 44°
2026-04-29 18:14 -26.02719 27.82014 6722 ft 171 kts 44°
2026-04-29 18:14 -26.01952 27.82936 6615 ft 162 kts 44°
2026-04-29 18:15 -26.01198 27.83845 6377 ft 157 kts 44°
2026-04-29 18:15 -26.00473 27.84720 6181 ft 150 kts 46°
2026-04-29 18:15 -25.99755 27.85585 6021 ft 150 kts 46°
2026-04-29 18:15 -25.99053 27.86434 5797 ft 151 kts 46°
2026-04-29 18:16 -25.98348 27.87286 5578 ft 148 kts 46°
2026-04-29 18:16 -25.97654 27.88123 5390 ft 147 kts 46°
2026-04-29 18:16 -25.96959 27.88963 5195 ft 147 kts 46°
2026-04-29 18:16 -25.96269 27.89797 4999 ft 146 kts 46°
2026-04-29 18:17 -25.95577 27.90632 4805 ft 146 kts 46°
2026-04-29 18:17 -25.94900 27.91458 4567 ft 140 kts 47°
2026-04-29 18:17 -25.94325 27.92128 4530 ft 94 kts 52°
2026-04-29 18:17 -25.93942 27.92610 4530 ft 67 kts 47°
2026-04-29 18:18 -25.93653 27.92954 4530 ft 55 kts 49°
2026-04-29 18:18 -25.93433 27.93214 4530 ft 40 kts 48°
2026-04-29 18:18 -25.93264 27.93425 4530 ft 34 kts 48°
2026-04-29 18:18 -25.93133 27.93590 4530 ft 23 kts 45°
2026-04-29 18:19 -25.93043 27.93682 4530 ft 16 kts 32°
2026-04-29 18:19 -25.92971 27.93729 4530 ft 6 kts 110°
2026-04-29 18:19 -25.93017 27.93727 4530 ft 9 kts 212°
2026-04-29 18:19 -25.93036 27.93708 4530 ft 0 kts 227°
2026-04-29 18:23 -25.93038 27.93705 4530 ft 6 kts 227°
2026-04-29 18:23 -25.93256 27.93435 4530 ft 84 kts 224°
2026-04-29 18:24 -25.93787 27.92790 4533 ft 140 kts 226°
2026-04-29 18:24 -25.94588 27.91931 4830 ft 170 kts 219°
2026-04-29 18:24 -25.95552 27.91160 5650 ft 173 kts 212°
2026-04-29 18:24 -25.96622 27.90377 6147 ft 201 kts 216°
2026-04-29 18:25 -25.97736 27.89195 6317 ft 244 kts 234°
2026-04-29 18:25 -25.98501 27.87360 6462 ft 276 kts 262°
2026-04-29 18:25 -25.98416 27.85188 7163 ft 291 kts 285°
2026-04-29 18:25 -25.97751 27.83017 7067 ft 298 kts 294°
2026-04-29 18:26 -25.96679 27.81111 6929 ft 284 kts 315°
2026-04-29 18:26 -25.95205 27.79793 6912 ft 262 kts 324°
2026-04-29 18:26 -25.93797 27.78614 6911 ft 244 kts 324°
2026-04-29 18:26 -25.92453 27.77492 6880 ft 242 kts 325°
2026-04-29 18:27 -25.90963 27.76678 6860 ft 237 kts 348°
2026-04-29 18:27 -25.89347 27.76598 6899 ft 232 kts
2026-04-29 18:27 -25.87744 27.76672 6913 ft 230 kts
2026-04-29 18:27 -25.86163 27.76748 6914 ft 225 kts
2026-04-29 18:28 -25.84606 27.76826 6911 ft 223 kts
2026-04-29 18:28 -25.83062 27.76907 6906 ft 221 kts
2026-04-29 18:28 -25.81532 27.76989 6900 ft 220 kts
2026-04-29 18:28 -25.80007 27.77074 6904 ft 220 kts
2026-04-29 18:29 -25.78470 27.77163 6902 ft 221 kts
2026-04-29 18:29 -25.77454 27.77231 6904 ft 221 kts
2026-04-29 18:29 -25.75503 27.77926 6896 ft 224 kts 32°
2026-04-29 18:29 -25.74402 27.79157 6908 ft 228 kts 52°
2026-04-29 18:30 -25.73488 27.80601 6900 ft 229 kts 52°
2026-04-29 18:30 -25.72573 27.82051 6904 ft 229 kts 52°
2026-04-29 18:30 -25.71664 27.83497 6910 ft 228 kts 52°
2026-04-29 18:30 -25.70758 27.84945 6913 ft 228 kts 52°
2026-04-29 18:31 -25.69854 27.86396 6905 ft 228 kts 52°
2026-04-29 18:31 -25.68955 27.87845 6908 ft 228 kts 52°
2026-04-29 18:31 -25.68118 27.89326 6900 ft 230 kts 62°
2026-04-29 18:31 -25.67678 27.91042 6900 ft 235 kts 81°
2026-04-29 18:32 -25.67640 27.92862 6905 ft 237 kts 87°
2026-04-29 18:32 -25.67681 27.96517 6898 ft 237 kts 87°
2026-04-29 18:32 -25.67705 27.98327 6899 ft 230 kts 91°
2026-04-29 18:33 -25.67733 28.00095 6899 ft 229 kts 91°
2026-04-29 18:33 -25.67765 28.01863 6901 ft 230 kts 91°
2026-04-29 18:33 -25.67804 28.03636 6901 ft 230 kts 93°
2026-04-29 18:33 -25.68143 28.05359 6898 ft 230 kts 114°
2026-04-29 18:34 -25.69015 28.06831 6906 ft 230 kts 132°
2026-04-29 18:34 -25.69385 28.07269 6908 ft 230 kts 134°
2026-04-29 18:34 -25.71234 28.09400 6903 ft 230 kts 134°
2026-04-29 18:34 -25.72515 28.10459 6899 ft 230 kts 154°
2026-04-29 18:35 -25.73977 28.11167 6901 ft 229 kts 154°
2026-04-29 18:35 -25.75261 28.12172 6896 ft 226 kts 133°
2026-04-29 18:35 -25.76126 28.13604 6903 ft 223 kts 116°
2026-04-29 18:35 -25.76576 28.15246 6896 ft 223 kts 94°
2026-04-29 18:36 -25.76428 28.16956 6909 ft 224 kts 77°
2026-04-29 18:36 -25.76072 28.18642 6906 ft 225 kts 77°
2026-04-29 18:36 -25.75718 28.20331 6903 ft 224 kts 77°
2026-04-29 18:36 -25.75369 28.22017 6902 ft 224 kts 77°
2026-04-29 18:37 -25.75060 28.23707 6873 ft 225 kts 90°
2026-04-29 18:37 -25.75587 28.25285 6903 ft 220 kts 130°
2026-04-29 18:37 -25.76621 28.26519 6892 ft 218 kts 143°
2026-04-29 18:37 -25.77859 28.27452 6899 ft 212 kts 146°
2026-04-29 18:38 -25.79002 28.28464 6897 ft 209 kts 136°
2026-04-29 18:38 -25.80052 28.29562 6883 ft 206 kts 139°
2026-04-29 18:38 -25.80853 28.30847 6877 ft 205 kts 102°
2026-04-29 18:38 -25.80620 28.32351 6887 ft 206 kts 47°
2026-04-29 18:39 -25.79322 28.32775 7058 ft 203 kts
2026-04-29 18:39 -25.77945 28.33343 7045 ft 217 kts 28°
2026-04-29 18:39 -25.76533 28.33575 6959 ft 205 kts 349°
2026-04-29 18:39 -25.75117 28.33336 6936 ft 209 kts 359°
2026-04-29 18:40 -25.73687 28.33547 6922 ft 207 kts 10°
2026-04-29 18:40 -25.72531 28.34341 6846 ft 202 kts 72°
2026-04-29 18:40 -25.72018 28.35801 7060 ft 216 kts 65°
2026-04-29 18:40 -25.71181 28.37208 6966 ft 216 kts 46°
2026-04-29 18:41 -25.68244 28.40023 6904 ft 206 kts 49°
2026-04-29 18:41 -25.67247 28.41160 6893 ft 206 kts 36°
2026-04-29 18:42 -25.65908 28.41464 6897 ft 202 kts 341°
2026-04-29 18:42 -25.64808 28.40500 6927 ft 209 kts 298°
2026-04-29 18:42 -25.64539 28.38937 6799 ft 212 kts 264°
2026-04-29 18:42 -25.64830 28.37345 6568 ft 209 kts 255°
2026-04-29 18:43 -25.65173 28.35774 6252 ft 210 kts 258°
2026-04-29 18:43 -25.65440 28.34178 5912 ft 210 kts 260°
2026-04-29 18:43 -25.65641 28.32574 5560 ft 210 kts 264°
2026-04-29 18:43 -25.65661 28.30934 5089 ft 210 kts 275°
2026-04-29 18:44 -25.65474 28.29447 5022 ft 181 kts 278°
2026-04-29 18:44 -25.65326 28.28167 4955 ft 154 kts 275°
2026-04-29 18:44 -25.65259 28.27061 4771 ft 140 kts 273°
2026-04-29 18:44 -25.65329 28.26008 4471 ft 128 kts 259°
2026-04-29 18:45 -25.65440 28.25064 4227 ft 127 kts 271°
2026-04-29 18:45 -25.65438 28.24118 4238 ft 115 kts 271°
2026-04-29 18:45 -25.65429 28.23127 4216 ft 131 kts 272°
2026-04-29 18:45 -25.65324 28.22168 4113 ft 120 kts 270°
2026-04-29 18:46 -25.65345 28.21155 4417 ft 137 kts 271°
2026-04-29 18:46 -25.65162 28.20140 5204 ft 144 kts 290°
2026-04-29 18:46 -25.64599 28.18974 5417 ft 201 kts 305°
2026-04-29 18:46 -25.63433 28.17820 5760 ft 250 kts 332°
2026-04-29 18:47 -25.61638 28.17333 6422 ft 279 kts 356°
2026-04-29 18:47 -25.59745 28.17418 7993 ft 270 kts
2026-04-29 18:47 -25.57711 28.17717 8090 ft 323 kts
2026-04-29 18:47 -25.55305 28.17635 8044 ft 369 kts 350°
2026-04-29 18:48 -25.52768 28.16627 8035 ft 409 kts 333°
2026-04-29 18:48 -25.50404 28.14631 7441 ft 446 kts 313°
2026-04-29 18:48 -25.48737 28.11746 6188 ft 442 kts 292°
2026-04-29 18:48 -25.47946 28.08744 7041 ft 381 kts 282°
2026-04-29 18:49 -25.47589 28.05993 7249 ft 347 kts 270°
2026-04-29 18:49 -25.47758 28.03292 7978 ft 350 kts 263°
2026-04-29 18:49 -25.48202 28.00844 9913 ft 306 kts 252°
2026-04-29 18:49 -25.49212 27.98692 9996 ft 325 kts 229°
2026-04-29 18:50 -25.51034 27.97290 9753 ft 319 kts 200°
2026-04-29 18:50 -25.53127 27.96672 9515 ft 304 kts 193°
2026-04-29 18:50 -25.55147 27.96153 9258 ft 292 kts 193°
2026-04-29 18:50 -25.57086 27.95650 9002 ft 281 kts 193°
2026-04-29 18:51 -25.58960 27.95164 8745 ft 271 kts 193°
2026-04-29 18:51 -25.60767 27.94704 8490 ft 263 kts 193°
2026-04-29 18:51 -25.62524 27.94253 8234 ft 255 kts 193°
2026-04-29 18:51 -25.64243 27.93848 7978 ft 248 kts 192°
2026-04-29 18:52 -25.65907 27.93473 7802 ft 239 kts 191°
2026-04-29 18:52 -25.67492 27.93115 7725 ft 225 kts 191°
2026-04-29 18:52 -25.68988 27.92774 7696 ft 216 kts 192°
2026-04-29 18:52 -25.70449 27.92496 7679 ft 211 kts 182°
2026-04-29 18:53 -25.71847 27.92829 7678 ft 205 kts 150°
2026-04-29 18:53 -25.72943 27.93795 7694 ft 205 kts 134°
2026-04-29 18:53 -25.73858 27.95010 7693 ft 205 kts 127°
2026-04-29 18:53 -25.74690 27.96292 7689 ft 204 kts 122°
2026-04-29 18:54 -25.75423 27.97642 7690 ft 204 kts 120°
2026-04-29 18:54 -25.76121 27.99019 7689 ft 204 kts 117°
2026-04-29 18:54 -25.76784 28.00414 7690 ft 205 kts 118°
2026-04-29 18:54 -25.77448 28.01805 7689 ft 204 kts 118°
2026-04-29 18:55 -25.78107 28.03204 7688 ft 204 kts 116°
2026-04-29 18:55 -25.78766 28.04600 7688 ft 204 kts 121°
2026-04-29 18:55 -25.79535 28.05922 7689 ft 204 kts 120°
2026-04-29 18:55 -25.80218 28.07308 7690 ft 205 kts 118°
2026-04-29 18:56 -25.80893 28.08700 7682 ft 208 kts 117°
2026-04-29 18:56 -25.81349 28.10335 7609 ft 243 kts 90°
2026-04-29 18:56 -25.80836 28.12183 7439 ft 263 kts 54°
2026-04-29 18:56 -25.79442 28.13513 7220 ft 269 kts 32°
2026-04-29 18:57 -25.77883 28.14687 6964 ft 272 kts 42°
2026-04-29 18:57 -25.76682 28.16308 6720 ft 274 kts 59°
2026-04-29 18:57 -25.75811 28.18192 6472 ft 273 kts 65°
2026-04-29 18:57 -25.75025 28.20105 6220 ft 271 kts 64°
2026-04-29 18:58 -25.74178 28.21960 5968 ft 268 kts 62°
2026-04-29 18:58 -25.73268 28.23748 5717 ft 266 kts 60°
2026-04-29 18:58 -25.72334 28.25510 5481 ft 262 kts 59°
2026-04-29 18:58 -25.71436 28.27216 5442 ft 252 kts 60°
2026-04-29 18:59 -25.70560 28.28915 6236 ft 255 kts 60°
2026-04-29 18:59 -25.69577 28.30516 7473 ft 239 kts 44°
2026-04-29 18:59 -25.68308 28.31312 7955 ft 195 kts 18°
2026-04-29 18:59 -25.67007 28.31408 7389 ft 187 kts 340°
2026-04-29 19:00 -25.65985 28.30577 6815 ft 179 kts 312°
2026-04-29 19:00 -25.65502 28.29361 6135 ft 179 kts 277°
2026-04-29 19:00 -25.65483 28.27933 5380 ft 182 kts 267°
2026-04-29 19:00 -25.65524 28.26605 5029 ft 164 kts 271°
2026-04-29 19:01 -25.65468 28.25430 4833 ft 142 kts 271°
2026-04-29 19:01 -25.65456 28.24353 4457 ft 140 kts 272°
2026-04-29 19:01 -25.65400 28.23268 4170 ft 141 kts 274°
2026-04-29 19:01 -25.65354 28.22300 4104 ft 98 kts 274°
2026-04-29 19:02 -25.65329 28.21827 4104 ft 46 kts 273°
2026-04-29 19:02 -25.65321 28.21603 4104 ft 40 kts 272°
2026-04-29 19:02 -25.65327 28.21331 4104 ft 13 kts 237°
2026-04-29 19:02 -25.65312 28.21310 4104 ft 9 kts 47°
2026-04-29 19:03 -25.65310 28.21365 4104 ft 0 kts 94°
2026-04-29 19:07 -25.65312 28.21397 4104 ft 5 kts 97°
2026-04-29 19:07 -25.65318 28.21444 4104 ft 11 kts 92°
2026-04-29 19:07 -25.65318 28.21465 4104 ft 4 kts 90°
2026-04-29 19:07 -25.65318 28.21506 4104 ft 6 kts 90°
2026-04-29 19:08 -25.65317 28.21562 4104 ft 16 kts 90°
2026-04-29 19:08 -25.65338 28.22039 4104 ft 106 kts 92°
2026-04-29 19:08 -25.65381 28.23110 4151 ft 167 kts 92°
2026-04-29 19:08 -25.65500 28.24442 4876 ft 180 kts 104°
2026-04-29 19:09 -25.66169 28.25764 5235 ft 223 kts 133°
2026-04-29 19:09 -25.67623 28.26824 5248 ft 277 kts 159°
2026-04-29 19:09 -25.69608 28.27236 5864 ft 295 kts 176°
2026-04-29 19:09 -25.71607 28.27152 6910 ft 290 kts 187°
2026-04-29 19:10 -25.73646 28.26989 6744 ft 294 kts 179°
2026-04-29 19:10 -25.75681 28.27072 6461 ft 289 kts 178°
2026-04-29 19:10 -25.77632 28.27090 6410 ft 271 kts 180°
2026-04-29 19:10 -25.79452 28.27140 6421 ft 252 kts 174°
2026-04-29 19:11 -25.81134 28.27382 6430 ft 235 kts 172°
2026-04-29 19:11 -25.82683 28.27609 6430 ft 220 kts 173°
2026-04-29 19:11 -25.84188 28.27704 6439 ft 213 kts 178°
2026-04-29 19:11 -25.85635 28.27860 6440 ft 207 kts 168°
2026-04-29 19:12 -25.87029 28.28231 6446 ft 204 kts 165°
2026-04-29 19:12 -25.88391 28.28617 6447 ft 202 kts 169°
2026-04-29 19:12 -25.89780 28.28790 6451 ft 200 kts 175°
2026-04-29 19:12 -25.90251 28.28836 6450 ft 199 kts 174°
2026-04-29 19:13 -25.92500 28.29204 6449 ft 195 kts 174°
2026-04-29 19:13 -25.93858 28.29276 6453 ft 195 kts 178°
2026-04-29 19:13 -25.95219 28.29295 6453 ft 196 kts 182°
2026-04-29 19:13 -25.96570 28.29140 6453 ft 195 kts 191°
2026-04-29 19:14 -25.97899 28.28816 6455 ft 195 kts 193°
2026-04-29 19:14 -25.99209 28.28407 6457 ft 195 kts 198°
2026-04-29 19:14 -26.00486 28.27954 6443 ft 194 kts 198°
2026-04-29 19:14 -26.01756 28.27504 6371 ft 186 kts 198°
2026-04-29 19:15 -26.03118 28.27070 6438 ft 223 kts 194°
2026-04-29 19:15 -26.04595 28.26530 6421 ft 219 kts 199°
2026-04-29 19:15 -26.05941 28.26003 6355 ft 188 kts 199°
2026-04-29 19:15 -26.07292 28.25510 6309 ft 223 kts 196°
2026-04-29 19:16 -26.08912 28.25001 6348 ft 257 kts 195°
2026-04-29 19:16 -26.10710 28.24483 6320 ft 272 kts 194°
2026-04-29 19:16 -26.12528 28.23943 6870 ft 264 kts 195°
2026-04-29 19:16 -26.14346 28.23692 7177 ft 272 kts 176°
2026-04-29 19:17 -26.16189 28.24180 7648 ft 263 kts 161°
2026-04-29 19:17 -26.17649 28.24951 7904 ft 213 kts 148°
2026-04-29 19:17 -26.18858 28.25867 7307 ft 209 kts 144°
2026-04-29 19:17 -26.19822 28.27091 6610 ft 211 kts 115°
2026-04-29 19:18 -26.20184 28.28590 6408 ft 188 kts 100°
2026-04-29 19:18 -26.20259 28.29064 6358 ft 181 kts 99°
2026-04-29 19:18 -26.21487 28.30322 5804 ft 151 kts 192°
2026-04-29 19:18 -26.22397 28.29769 5589 ft 157 kts 222°
2026-04-29 19:19 -26.22904 28.28904 6315 ft 126 kts 259°
2026-04-29 19:19 -26.22812 28.27865 6324 ft 147 kts 277°
2026-04-29 19:19 -26.22715 28.27088 6377 ft 159 kts 279°
2026-04-29 19:19 -26.22552 28.25975 6862 ft 135 kts 266°
2026-04-29 19:20 -26.22397 28.24871 6650 ft 157 kts 274°
2026-04-29 19:20 -26.22016 28.23747 6675 ft 144 kts 300°
2026-04-29 19:20 -26.21350 28.22999 6320 ft 136 kts 329°
2026-04-29 19:20 -26.20445 28.22639 5779 ft 143 kts 350°
2026-04-29 19:21 -26.19489 28.22571 5443 ft 103 kts 355°
2026-04-29 19:21 -26.18989 28.22530 5518 ft 31 kts 355°
2026-04-29 19:21 -26.18948 28.22525 5520 ft 0 kts 355°
2026-04-29 19:36 -26.18945 28.22525 5520 ft 1 kts 355°
2026-04-29 19:36 -26.18935 28.22524 5520 ft 3 kts 355°
2026-04-29 19:36 -26.18809 28.22512 5514 ft 55 kts 357°
2026-04-29 19:37 -26.18183 28.22701 5498 ft 134 kts 19°
2026-04-29 19:37 -26.17488 28.22971 5531 ft 175 kts 19°
2026-04-29 19:37 -26.15713 28.23359 6145 ft 220 kts
2026-04-29 19:37 -26.14118 28.23558 7111 ft 232 kts 12°
2026-04-29 19:38 -26.12597 28.24117 8517 ft 230 kts 21°
2026-04-29 19:38 -26.11093 28.24792 9725 ft 238 kts 24°
2026-04-29 19:38 -26.09561 28.25651 10655 ft 257 kts 30°
2026-04-29 19:38 -26.07996 28.26779 11462 ft 279 kts 35°
2026-04-29 19:39 -26.06377 28.28079 12381 ft 294 kts 37°
2026-04-29 19:39 -26.04726 28.29483 13434 ft 305 kts 38°
2026-04-29 19:39 -26.02916 28.31059 13348 ft 357 kts 38°
2026-04-29 19:39 -26.00830 28.32885 13234 ft 404 kts 38°
2026-04-29 19:40 -25.98526 28.34914 13209 ft 435 kts 39°
2026-04-29 19:40 -25.96369 28.37221 12988 ft 423 kts 52°
2026-04-29 19:40 -25.94802 28.40079 12924 ft 451 kts 61°
2026-04-29 19:40 -25.93037 28.43114 12896 ft 481 kts 53°
2026-04-29 19:41 -25.91288 28.45801 15489 ft 369 kts 41°
2026-04-29 19:41 -25.89808 28.48028 16562 ft 349 kts 54°
2026-04-29 19:41 -25.88395 28.50185 15798 ft 361 kts 53°
2026-04-29 19:41 -25.86762 28.52543 14525 ft 390 kts 52°
2026-04-29 19:42 -25.85153 28.54847 14677 ft 364 kts 52°
2026-04-29 19:42 -25.84150 28.56283 14806 ft 348 kts 52°
2026-04-29 19:42 -25.82236 28.59024 14764 ft 323 kts 52°
2026-04-29 19:42 -25.80903 28.60951 14686 ft 308 kts 53°
2026-04-29 19:43 -25.79654 28.62889 14380 ft 315 kts 54°
2026-04-29 19:43 -25.78393 28.64884 14308 ft 321 kts 52°
2026-04-29 19:43 -25.77052 28.66882 14334 ft 325 kts 52°
2026-04-29 19:43 -25.75689 28.68897 14345 ft 329 kts 52°
2026-04-29 19:44 -25.74291 28.70970 14351 ft 340 kts 52°
2026-04-29 19:44 -25.72865 28.73076 14352 ft 342 kts 52°
2026-04-29 19:44 -25.71429 28.75191 14341 ft 345 kts 52°
2026-04-29 19:44 -25.69977 28.77321 14321 ft 347 kts 52°
2026-04-29 19:45 -25.68509 28.79461 14327 ft 349 kts 52°
2026-04-29 19:45 -25.67029 28.81599 14330 ft 350 kts 51°
2026-04-29 19:45 -25.65533 28.83744 14331 ft 352 kts 51°
2026-04-29 19:45 -25.64037 28.85877 14329 ft 347 kts 52°
2026-04-29 19:46 -25.62572 28.87975 14294 ft 346 kts 52°
2026-04-29 19:46 -25.61116 28.90110 14302 ft 348 kts 52°
2026-04-29 19:46 -25.59655 28.92265 14306 ft 350 kts 52°
2026-04-29 19:46 -25.58185 28.94435 14307 ft 353 kts 52°
2026-04-29 19:47 -25.56706 28.96618 14307 ft 355 kts 52°
2026-04-29 19:47 -25.55234 28.98782 14305 ft 348 kts 52°
2026-04-29 19:47 -25.53786 29.00904 14303 ft 342 kts 52°
2026-04-29 19:47 -25.52364 29.02989 14303 ft 336 kts 52°
2026-04-29 19:48 -25.50965 29.05042 14303 ft 331 kts 52°
2026-04-29 19:48 -25.50053 29.06380 14302 ft 327 kts 52°
2026-04-29 19:48 -25.48236 29.09052 14302 ft 321 kts 52°
2026-04-29 19:48 -25.46905 29.11009 14302 ft 316 kts 52°
2026-04-29 19:49 -25.45609 29.12919 14302 ft 312 kts 52°
2026-04-29 19:49 -25.44398 29.14889 14277 ft 309 kts 63°
2026-04-29 19:49 -25.43952 29.17177 14250 ft 305 kts 93°
2026-04-29 19:49 -25.44583 29.19397 14023 ft 308 kts 123°
2026-04-29 19:50 -25.46097 29.21077 13794 ft 312 kts 147°
2026-04-29 19:50 -25.48148 29.21817 13557 ft 315 kts 177°
2026-04-29 19:50 -25.50332 29.21611 13363 ft 317 kts 187°
2026-04-29 19:50 -25.52526 29.21265 13165 ft 320 kts 187°
2026-04-29 19:51 -25.54674 29.20674 12932 ft 315 kts 206°
2026-04-29 19:51 -25.56301 29.19162 12733 ft 303 kts 236°
2026-04-29 19:51 -25.57024 29.17043 12553 ft 290 kts 259°
2026-04-29 19:51 -25.57358 29.14873 12327 ft 282 kts 259°
2026-04-29 19:52 -25.57808 29.12735 11622 ft 286 kts 254°
2026-04-29 19:52 -25.58397 29.10625 11067 ft 287 kts 252°
2026-04-29 19:52 -25.59017 29.08516 10634 ft 286 kts 252°
2026-04-29 19:52 -25.59592 29.06442 10476 ft 275 kts 253°
2026-04-29 19:53 -25.60109 29.04464 10424 ft 260 kts 254°
2026-04-29 19:53 -25.60590 29.02587 10373 ft 246 kts 254°
2026-04-29 19:53 -25.61060 29.00819 10323 ft 232 kts 253°
2026-04-29 19:53 -25.61496 28.99142 10268 ft 219 kts 254°
2026-04-29 19:54 -25.62283 28.96088 10147 ft 193 kts 254°
2026-04-29 19:54 -25.62693 28.94562 9769 ft 225 kts 249°
2026-04-29 19:54 -25.63172 28.92813 9750 ft 249 kts 251°
2026-04-29 19:55 -25.63683 28.90882 9726 ft 272 kts 252°
2026-04-29 19:55 -25.64223 28.88791 9700 ft 293 kts 252°
2026-04-29 19:55 -25.64799 28.86546 9672 ft 312 kts 252°
2026-04-29 19:55 -25.65416 28.84158 9641 ft 330 kts 252°
2026-04-29 19:56 -25.66067 28.81653 9592 ft 343 kts 253°
2026-04-29 19:56 -25.66707 28.79158 9511 ft 329 kts 254°
2026-04-29 19:56 -25.67318 28.76763 9429 ft 317 kts 254°
2026-04-29 19:56 -25.67712 28.75229 9374 ft 307 kts 254°
2026-04-29 19:57 -25.68278 28.73043 9275 ft 282 kts 254°
2026-04-29 19:57 -25.68798 28.71041 9181 ft 258 kts 254°
2026-04-29 19:57 -25.69275 28.69205 9085 ft 237 kts 254°
2026-04-29 19:57 -25.69720 28.67496 8995 ft 224 kts 253°
2026-04-29 19:58 -25.70148 28.65852 8919 ft 219 kts 253°
2026-04-29 19:58 -25.70565 28.64243 8842 ft 214 kts 253°
2026-04-29 19:58 -25.70971 28.62674 8784 ft 208 kts 253°
2026-04-29 19:58 -25.71366 28.61146 8686 ft 204 kts 253°
2026-04-29 19:59 -25.71750 28.59656 8550 ft 198 kts 253°
2026-04-29 19:59 -25.72126 28.58198 8421 ft 195 kts 253°
2026-04-29 19:59 -25.72499 28.56757 8296 ft 193 kts 253°
2026-04-29 19:59 -25.72865 28.55342 8149 ft 191 kts 253°
2026-04-29 20:00 -25.73246 28.53873 7792 ft 202 kts 252°
2026-04-29 20:00 -25.73654 28.52374 7583 ft 204 kts 252°
2026-04-29 20:00 -25.74064 28.50866 7409 ft 204 kts 253°
2026-04-29 20:00 -25.74451 28.49374 7360 ft 197 kts 253°
2026-04-29 20:01 -25.74813 28.47955 7274 ft 191 kts 253°
2026-04-29 20:01 -25.75174 28.46561 7193 ft 185 kts 253°
2026-04-29 20:01 -25.75530 28.45197 7044 ft 183 kts 253°
2026-04-29 20:01 -25.75883 28.43840 6877 ft 183 kts 253°
2026-04-29 20:02 -25.76201 28.42478 6699 ft 182 kts 260°
2026-04-29 20:02 -25.75919 28.41136 6500 ft 181 kts 298°
2026-04-29 20:02 -25.75407 28.39904 6483 ft 170 kts 292°
2026-04-29 20:02 -25.75088 28.39129 6473 ft 163 kts 294°
2026-04-29 20:03 -25.74498 28.37658 6490 ft 152 kts 278°
2026-04-29 20:03 -25.74443 28.36526 6638 ft 147 kts 249°
2026-04-29 20:03 -25.74646 28.35350 6549 ft 168 kts 255°
2026-04-29 20:03 -25.74397 28.33961 6428 ft 196 kts 287°
2026-04-29 20:04 -25.73757 28.32531 6472 ft 217 kts 295°
2026-04-29 20:04 -25.72952 28.31018 6496 ft 239 kts 299°
2026-04-29 20:04 -25.71936 28.29464 6494 ft 259 kts 306°
2026-04-29 20:04 -25.70858 28.27896 6496 ft 248 kts 307°
2026-04-29 20:05 -25.69847 28.26430 6489 ft 231 kts 307°
2026-04-29 20:05 -25.68901 28.25065 6485 ft 215 kts 307°
2026-04-29 20:05 -25.68297 28.23642 6439 ft 199 kts 273°
2026-04-29 20:05 -25.68582 28.22241 6454 ft 179 kts 242°
2026-04-29 20:06 -25.69306 28.21218 6448 ft 160 kts 219°
2026-04-29 20:06 -25.70221 28.20648 6344 ft 146 kts 200°
2026-04-29 20:06 -25.71244 28.20379 5902 ft 158 kts 187°
2026-04-29 20:06 -25.72378 28.20305 5410 ft 168 kts 179°
2026-04-29 20:07 -25.73528 28.20418 5081 ft 162 kts 172°
2026-04-29 20:07 -25.74605 28.20640 4829 ft 152 kts 166°
2026-04-29 20:07 -25.75584 28.20921 4847 ft 141 kts 152°
2026-04-29 20:07 -25.76499 28.21143 5079 ft 133 kts 148°
2026-04-29 20:08 -25.77439 28.21389 5110 ft 143 kts 158°
2026-04-29 20:08 -25.78111 28.21315 5080 ft 148 kts 176°
2026-04-29 20:08 -25.79402 28.21596 4969 ft 138 kts 155°
2026-04-29 20:08 -25.80135 28.21965 4822 ft 67 kts 169°
2026-04-29 20:09 -25.80507 28.22060 4839 ft 48 kts 174°
2026-04-29 20:09 -25.80769 28.22096 4860 ft 25 kts 166°
2026-04-29 20:09 -25.80899 28.22142 4888 ft 14 kts 157°
2026-04-29 20:09 -25.80954 28.22177 4902 ft 4 kts 152°
2026-04-29 20:10 -25.80958 28.22180 4901 ft 0 kts 152°
2026-04-29 20:10 -25.80958 28.22181 4901 ft 0 kts 152°
2026-04-29 20:11 -25.80958 28.22182 4900 ft 0 kts 152°
2026-04-29 20:11 -25.80957 28.22182 4900 ft 0 kts 152°
2026-04-29 20:12 -25.80957 28.22183 4900 ft 0 kts 152°
2026-04-29 20:13 -25.80957 28.22184 4944 ft 0 kts 149°
2026-04-29 20:13 -25.80956 28.22184 4888 ft 0 kts 150°